STARLINK-2501, 48330

Orbit data source: Space-Track

STARLINK-2501, 48330 is a payload satellite owned by SpaceX/Seattle (US) in LEO that was launched on Thu, 29 Apr 2021 UTC via an FALCON 9 launch vehicle from the Air Force Eastern Test Range (AFETR). Payload-class satellites include a variety of spacecraft equipped with specific instruments for various scientific and technological missions. These include communications satellites like Starlink; space stations such as the ISS; scientific satellites like the Hubble; Earth observation satellites from companies like Planet Labs, Umbra, and HawkEye 360; GPS; miniature CubeSats for education and research; and military/defense satellites.

Loading next visibility...
Identifier
48330, 2021-036BG
Orbit
LEO
Country
Flag of USUS
Related business
Manufacturer
SpaceX/Seattle
Mission
Operational Commercial Communications
Bus & Motor
STARLINK, Unknown motor
Mass
260 kg wet, ~248 kg dry
Launch date (UTC)
2021-04-29 (5 years ago)
Launch vehicle
FALCON 9
Launch site
Air Force Eastern Test Range (AFETR)
Object type
Payload
Rocket body
Debris
Shape & HBR
Box + 1 Pan, 10.1 m
Radar Cross Section
13.562 m², Large (>1 m²)

Expand to show TLE details & history
Last TLE update: 18 hours ago

TLE from 18 hours ago
0 STARLINK-2501
1 48330U 21036BG  26036.96764516 -.00002010  00000-0 -11602-3 0  9999
2 48330  53.0518 244.0230 0002800  74.9214 285.2085 15.06394017263258
Epoch: 2026-02-05T23:13Z
TLE epoch observation values (Epoch: 2026-02-05T23:13:24.541Z)
Latitude
-0.00001°
Longitude
119.55847°
Altitude
547.601 km
Speed
7.59 km/s
True Right ascension
16h 16m 05s
True Declination
0° 00' 00"
Sunlit
Object was in daylight at epoch
Visualization orbit readout
Latitude
Unknown
Longitude
Unknown
Altitude
Unknown
Speed
Unknown
Apparent Right ascension
Unknown
Apparent Declination
Unknown
Sunlit
N/A
Visualization observer readout
Local Sidereal Time
18:53:42
Azimuth
Unknown
Elevation
Unknown
Doppler factor
Unknown
Orbital elements
Apogee altitude
549.44 km
Perigee altitude
545.562 km
Semi-major axis
6,925.638 km
Eccentricity
0.00028
Inclination
53.0518°
RAAN
244.023°
Arg. of periapsis
74.9214°
True anomaly
285.17754°
Mean anomaly
285.2085°
Eccentric anomaly
285.19302°
Mean motion
3.76577 °/min
Orbital period
95.6 mins
BSTAR
-0.00011602
Loading maneuver chart data...
Computing Atmospheric mass density...
Loading historical data...
Loading historical data...
Loading historical data...
Loading historical data...
Loading historical data...
Loading historical data...
Loading historical data...

Documentation

Showing up to 5 results
|